Find Starlink 5193

NORAD ID: 54095 Int'l Des: 2022-136 Owner: SPXS Country: US Constellation: starlink operational
LEOCIRCULAR

Current View

Loading 3D Globe...

About Starlink 5193

Description loading...

Upcoming Passes

Passes for default location (London). Set your location on the main map for personalized predictions.

Altitude History

Loading altitude history...

Two-Line Element Set

1 54095U 22136AW 26150.06527627 -.00000924 00000-0 -39992-4 0 9999
2 54095 53.1995 328.4743 0001608 38.1990 321.9115 15.08838237199278
Epoch: May 30, 2026 • Age: 7 hours

Current Status

Altitude 557.2 km
Velocity 7.58 km/s
Sub-Earth Point -48.15°S, 179.96°W
Launch Date Oct 20, 2022
Age 3.6 years
Type internet

Technical Details

Classification Payload
Mass 305.00 kg
Dry Mass 290.00 kg
Total Mass 305.00 kg
Length 0.20 m
Diameter 2.80 m
Span 9.00 m
Shape Box + pan
Manufacturer SPXS
Bus Type Starlink
Phase Status In Orbit
Owner/State SPXS/US

Most Searched